Probability
0 0 0 0 0 0 0 0 0 0 0 0 0 1 2 2 1 0 0 0 0 0 0 0 0 0 0 1 4 6 5 5 4 4 4 4 3 3
0 0 0 0 0 0 0 0 0 0 0 0 0 0 1 1 1 0 0 0 0 0 0 0 0 0 0 1 3 4 4 3 3 3 4 5 5 4
0 0 0 0 0 0 0 0 0 0 0 0 0 0 0 0 0 0 0 0 0 0 0 0 0 0 0 0 1 1 1 1 1 2 3 4 5 6
0 0 0 0 0 0 0 0 0 0 0 0 0 0 0 0 0 0 0 0 0 0 0 0 0 0 0 0 0 0 0 0 0 1 1 2 4 5
0 0 0 0 0 0 0 0 0 0 0 0 0 0 0 0 0 0 0 0 0 0 0 0 0 0 0 0 0 0 0 0 0 0 0 0 2 3
0 0 0 0 0 0 0 0 0 0 0 0 0 0 0 0 0 0 0 0 0 0 0 0 0 0 0 0 0 0 0 0 0 0 0 0 1 2
0 0 0 0 0 0 0 0 0 0 0 0 0 0 0 0 0 0 0 0 0 0 0 0 0 0 0 0 0 0 0 0 0 0 0 0 0 1
0 0 0 0 0 0 0 0 0 0 0 0 0 0 0 0 0 0 0 0 0 0 0 0 0 0 0 0 0 0 0 0 0 0 0 0 0 0
0 0 0 0 0 0 0 0 0 0 0 0 0 0 0 0 0 0 0 0 0 0 0 0 0 0 0 0 0 0 0 0 0 0 0 0 0 0
0 0 0 0 0 0 0 0 0 0 0 0 0 0 0 0 0 0 0 0 0 0 0 0 0 0 0 0 0 0 0 0 0 0 0 0 0 0
0 0 0 0 0 0 0 0 0 0 0 0 0 0 0 0 0 0 0 0 0 0 0 0 0 0 0 0 0 0 0 0 0 0 0 0 0 0
0 0 0 0 0 0 0 0 0 0 0 0 0 0 0 0 0 0 0 0 0 0 0 0 0 0 0 0 0 0 0 0 0 0 0 0 0 0
0 0 0 0 0 0 0 0 0 0 0 0 0 0 0 0 0 0 0 0 0 0 0 0 0 0 0 0 0 0 0 0 0 0 0 0 0 0
0 0 0 0 0 0 0 0 0 0 0 0 0 0 0 0 0 0 0 0 0 0 0 0 0 0 0 0 0 0 0 0 0 0 0 0 0 0
0 0 0 0 0 0 0 0 0 0 0 0 0 0 0 0 0 0 0 0 0 0 0 0 0 0 0 0 0 0 0 0 0 0 0 0 0 0
0 0 0 0 0 0 0 0 0 0 0 0 0 0 0 0 0 0 0 0 0 0 0 0 0 0 0 0 0 0 0 0 0 0 0 0 0 0
0 0 0 0 0 0 0 0 0 0 0 0 0 0 0 0 0 0 0 0 0 0 0 0 0 0 0 0 0 0 0 0 0 0 0 0 0 0
0 0 0 0 0 0 0 0 0 0 0 0 0 0 0 0 0 0 0 0 0 0 0 0 0 0 0 0 0 0 0 0 0 0 0 0 0 0
0 0 0 0 0 0 0 0 0 0 0 0 0 0 0 0 0 0 0 0 0 0 0 0 0 0 0 0 0 0 0 0 0 0 0 0 0 0
0 0 0 0 0 0 0 0 0 0 0 0 0 0 0 0 0 0 0 0 0 0 0 0 0 0 0 0 0 0 0 0 0 0 0 0 0 0
0 0 0 0 0 0 0 0 0 0 0 0 0 0 0 0 0 0 0 0 0 0 0 0 0 0 0 0 0 0 0 0 0 0 0 0 0 0
0 0 0 0 0 0 0 0 0 0 0 0 0 0 0 0 0 0 0 0 0 0 0 0 0 0 0 0 0 0 0 0 0 0 0 0 0 0
0 0 0 0 0 0 0 0 0 0 0 0 0 0 0 0 0 0 0 0 0 0 0 0 0 0 0 0 0 0 0 0 0 0 0 0 0 0
Wind_Speed
2 2 1 1 1 1 0 0 0 1 1 1 1 0 0 1 4 4 4 8 10 10 11 11 10 10 11 12 12 12 13 13 14 14 15 15 15 15
1 1 1 1 1 1 1 1 1 1 1 1 1 1 1 1 4 3 3 8 10 11 11 11 11 11 11 11 11 12 12 12 13 14 15 15 14 14
2 1 1 1 0 1 1 1 1 1 1 2 1 1 1 1 0 1 2 3 5 10 11 12 12 11 11 12 12 12 12 12 13 13 14 15 15 15
2 1 1 1 1 1 1 1 1 1 1 2 2 1 1 1 1 2 2 3 3 8 12 12 12 12 12 12 12 12 12 12 13 13 14 15 16 16
1 1 1 1 1 1 0 1 1 1 0 1 2 1 1 1 1 2 2 2 4 5 9 11 12 12 12 12 12 12 12 13 13 13 14 14 15 16
1 0 0 1 1 2 1 2 2 2 1 1 2 1 1 2 1 1 2 2 3 3 3 5 9 12 12 13 13 13 13 13 13 13 13 14 14 15
1 1 1 2 2 1 1 1 2 2 2 1 2 1 1 1 1 1 2 2 3 2 2 3 3 4 6 10 13 13 13 14 14 14 14 14 14 15
2 1 1 2 3 2 2 3 2 2 2 2 2 2 2 2 2 1 2 1 3 2 1 3 2 4 4 5 9 13 14 14 14 14 14 14 14 15
3 2 2 2 2 0 2 4 4 5 5 2 2 3 3 2 1 2 2 2 3 3 1 3 3 4 4 5 9 12 14 14 14 14 14 14 15 15
2 1 1 3 3 2 2 2 2 1 2 2 2 2 2 2 1 2 3 3 3 3 2 3 3 3 3 3 8 10 12 12 13 13 13 13 14 14
1 2 2 3 5 5 3 3 3 3 2 2 2 3 4 4 3 2 2 1 2 3 2 2 2 2 3 3 4 8 9 10 11 12 12 12 13 12
2 3 6 5 5 6 3 3 3 4 4 3 3 4 3 3 3 2 2 2 2 2 2 1 2 1 3 2 2 2 4 7 10 11 12 12 11 7
2 3 3 6 5 5 3 2 3 4 4 3 3 2 2 2 2 2 1 1 2 3 2 1 2 1 2 3 3 3 3 3 3 6 9 12 12 10
2 3 3 5 5 4 3 3 5 5 3 3 2 2 3 3 3 3 3 3 2 3 3 2 2 2 2 3 4 3 3 3 3 4 4 7 10 13
2 3 2 3 3 2 2 4 4 2 2 2 3 3 2 3 3 3 3 4 4 4 3 2 2 2 2 3 4 3 4 4 3 4 4 4 5 5
1 0 1 2 2 2 2 2 2 2 2 2 2 2 3 3 3 3 3 4 3 3 4 4 3 2 3 4 4 5 4 3 3 4 4 4 4 5
3 1 1 1 2 2 2 2 2 2 2 2 2 2 3 3 3 3 3 3 3 4 4 4 4 4 4 4 4 4 4 3 3 3 3 5 5 5
3 1 1 2 2 2 2 2 2 2 2 2 2 2 2 3 3 3 3 3 3 4 4 4 4 5 4 4 3 3 3 4 4 4 4 5 6 5
1 1 2 2 2 2 2 2 2 3 3 2 2 3 3 3 3 3 3 3 3 4 4 4 3 3 5 6 5 3 4 5 4 4 4 5 6 6
1 1 2 2 2 2 2 2 2 2 2 3 2 3 3 3 3 4 4 4 4 4 4 4 3 3 4 6 6 6 6 5 4 5 5 5 6 7
2 2 2 2 2 2 2 2 2 2 2 2 3 3 3 3 3 4 4 6 5 5 5 5 5 7 5 5 6 6 5 7 8 6 5 5 6 5
2 2 1 2 1 1 1 2 2 2 2 2 3 3 3 3 4 5 5 5 5 5 6 6 6 5 4 6 8 8 8 7 8 12 12 10 6 6
2 2 1 1 1 1 1 2 2 2 2 2 3 3 4 4 4 4 5 5 5 6 7 7 6 5 6 6 7 8 10 10 7 7 7 10 14 15
Wind_Direction
340 339 339 322 351 318 344 144 169 306 300 305 351 301 180 159 168 191 194 198 203 212 215 214 215 215 216 217 218 219 220 220 218 215 216 218 219 218
262 277 318 341 351 328 326 296 227 213 265 283 296 268 255 225 190 204 206 196 207 213 214 214 215 215 216 217 217 218 217 219 219 218 217 218 217 218
326 336 330 313 353 335 339 319 279 243 257 290 307 320 275 274 217 244 235 209 210 215 214 214 214 214 216 217 217 218 218 219 220 221 219 219 218 218
325 327 307 326 9 301 305 301 285 256 234 279 303 315 315 299 249 247 255 237 222 217 214 214 214 215 217 218 219 219 219 219 221 223 223 222 222 221
306 326 326 355 334 310 294 305 301 302 278 275 280 284 289 291 295 283 275 265 255 226 214 216 217 219 220 222 222 222 222 222 222 223 224 225 224 223
284 262 152 45 22 4 354 350 341 337 324 297 285 288 284 283 284 279 288 274 264 256 234 221 219 221 223 223 223 224 224 224 223 223 224 225 224 225
308 291 150 146 127 108 25 355 355 343 322 305 297 308 295 301 275 259 273 283 272 247 240 239 220 220 222 227 228 227 226 225 225 224 224 224 224 224
313 312 184 169 170 187 232 255 255 274 292 298 302 301 292 283 281 273 270 288 283 275 243 261 233 232 230 220 220 221 223 224 224 225 225 225 225 226
314 325 351 58 92 60 261 264 264 258 246 246 271 284 294 301 314 310 295 271 260 262 273 271 255 247 242 239 228 222 221 222 223 224 225 226 227 228
296 327 27 57 42 24 350 329 307 289 254 241 242 273 294 316 306 281 274 277 278 270 224 252 263 264 265 252 240 232 226 225 225 224 225 227 228 228
11 43 47 67 41 35 20 351 345 337 323 290 274 281 292 293 288 307 301 283 284 279 245 228 262 279 278 266 255 238 233 232 230 229 228 228 229 229
46 70 63 67 48 41 25 4 351 334 335 338 323 311 305 306 297 260 274 283 288 288 283 274 287 321 301 279 259 255 244 243 239 238 235 233 229 224
22 53 55 47 43 35 28 14 351 336 331 336 333 333 341 349 351 334 316 290 279 274 296 331 298 293 264 290 292 269 251 246 235 240 237 236 229 219
23 47 47 31 30 26 20 9 1 355 341 345 350 355 359 354 345 339 332 326 297 276 284 297 277 276 284 286 285 286 278 261 244 244 241 238 233 228
50 51 31 13 6 18 31 18 11 8 1 8 2 353 343 336 341 338 333 326 313 310 312 301 284 276 266 269 278 280 286 275 251 246 248 240 231 223
358 303 330 358 12 17 31 26 29 40 31 11 353 339 342 352 353 346 341 336 331 325 325 323 313 294 277 269 265 274 271 270 274 265 260 259 249 233
343 358 38 37 38 36 33 30 25 24 18 4 5 357 352 350 342 343 341 339 336 327 326 326 321 304 277 266 272 271 277 281 279 278 276 271 262 250
15 40 50 46 38 30 26 14 12 10 4 6 6 357 347 340 334 334 336 335 327 322 320 323 334 334 329 303 263 278 283 283 285 284 280 277 274 263
40 51 64 55 38 26 23 21 11 7 8 8 3 352 345 338 333 330 328 325 318 312 312 320 334 336 319 307 296 282 291 294 295 286 273 268 273 274
91 72 66 55 41 29 20 12 3 358 1 354 351 347 341 334 330 327 324 324 318 314 314 316 314 307 292 289 288 288 274 276 285 284 284 281 274 277
85 75 71 59 40 30 19 6 357 355 355 350 346 341 336 332 328 324 321 321 318 313 311 305 295 297 288 292 292 292 287 273 272 275 281 286 288 283
106 94 83 72 46 27 7 351 348 352 352 349 342 338 333 328 322 319 316 313 308 303 301 298 302 306 301 295 293 294 296 297 280 275 271 264 266 270
121 108 93 75 56 24 356 344 346 346 349 345 340 333 327 321 315 309 306 303 302 301 303 302 303 301 294 287 289 291 294 297 297 292 277 266 264 266